FW6251 Weather Reports


Display with metric or nautical units.
time (UTC)temp
F
wind
direction
speed
MPH
gust
MPH
rain 1hr
in
rain 24hr
in
rain mn
in
humidity
%
barometer
mb
20260509113044 82 146 2.0 14.0 0.00 0.00 0.00 39 1012.4
20260509111553 82 90 1.0 11.0 0.00 0.00 0.00 40 1012.7
20260509110055 82 167 3.0 11.0 0.00 0.00 0.00 42 1013.0
20260509104547 82 162 0.0 12.0 0.00 0.00 0.00 42 1013.1
20260509103053 81 123 5.0 14.0 0.00 0.00 0.00 43 1013.4
20260509101553 81 154 6.0 12.0 0.00 0.00 0.00 47 1013.7
20260509100100 80 136 3.0 13.0 0.00 0.00 0.00 46 1014.0
20260509094552 80 146 7.0 14.0 0.00 0.00 0.00 45 1014.2
20260509093001 79 126 7.0 14.0 0.00 0.00 0.00 53 1014.5
20260509091511 78 142 7.0 13.0 0.00 0.00 0.00 60 1014.7
20260509090040 78 147 6.0 16.0 0.00 0.00 0.00 59 1015.0
20260509084543 77 126 6.0 16.0 0.00 0.00 0.00 61 1015.1
20260509083041 76 139 4.0 11.0 0.00 0.00 0.00 69 1015.4
20260509081549 75 182 5.0 12.0 0.00 0.00 0.00 73 1015.5
20260509080057 75 153 6.0 12.0 0.00 0.00 0.00 76 1015.8
20260509074547 74 151 7.0 11.0 0.00 0.00 0.00 78 1016.0
20260509073054 73 155 6.0 11.0 0.00 0.00 0.00 80 1016.1
20260509071506 72 152 6.0 12.0 0.00 0.00 0.00 81 1016.2
20260509070123 72 142 6.0 11.0 0.00 0.00 0.00 81 1016.2
20260509064502 71 139 3.0 8.0 0.00 0.00 0.00 84 1016.1
20260509063004 70 142 3.0 8.0 0.00 0.00 0.00 86 1016.0
20260509061528 69 148 2.0 8.0 0.00 0.00 0.00 87 1015.8
20260509060006 68 86 4.0 8.0 0.00 0.00 0.00 88 1015.8
20260509054516 67 110 2.0 7.0 0.00 0.00 0.00 89 1015.6
20260509053009 67 96 5.0 9.0 0.00 0.00 0.00 90 1015.5
20260509051523 66 91 6.0 9.0 0.00 0.00 0.00 90 1015.3
20260509050013 66 96 4.0 7.0 0.00 0.00 0.00 90 1015.1
20260509044524 66 94 2.0 5.0 0.00 0.00 0.00 90 1014.9
20260509043037 65 89 3.0 6.0 0.00 0.00 0.00 89 1014.8
20260509041551 66 84 2.0 4.0 0.00 0.00 0.00 88 1014.7
20260509040059 66 71 0.0 4.0 0.00 0.00 0.00 87 1014.6
20260509034557 67 61 1.0 4.0 0.00 0.00 0.00 86 1014.4
20260509033100 67 53 1.0 4.0 0.00 0.00 0.00 86 1014.3
20260509033002 67 53 1.0 4.0 0.00 0.00 0.00 86 1014.4
20260509031533 67 52 2.0 4.0 0.00 0.00 0.00 86 1014.2
20260509030004 67 40 3.0 5.0 0.00 0.00 0.00 86 1014.1
20260509024532 67 36 3.0 6.0 0.00 0.00 0.00 86 1014.0
20260509023034 67 69 1.0 5.0 0.00 0.00 0.00 86 1014.0
20260509021546 67 41 4.0 8.0 0.00 0.00 0.00 87 1014.0
20260509020054 67 32 1.0 8.0 0.00 0.00 0.00 87 1013.9
20260509014547 67 61 3.0 5.0 0.00 0.00 0.00 87 1013.9
20260509013047 67 55 1.0 5.0 0.00 0.00 0.00 87 1013.9
20260509011601 67 57 2.0 4.0 0.00 0.00 0.00 87 1013.9
20260509010108 67 52 3.0 6.0 0.00 0.00 0.00 87 1013.9
20260509004600 67 47 2.0 5.0 0.00 0.00 0.00 87 1014.0
20260509003100 67 44 3.0 6.0 0.00 0.00 0.00 87 1013.9
20260509001512 67 44 1.0 5.0 0.00 0.00 0.00 87 1013.9
20260509000004 67 39 2.0 4.0 0.00 0.00 0.00 87 1013.8
20260508234528 67 55 0.0 0.0 0.00 0.00 0.00 87 1013.8
20260508233030 67 48 1.0 4.0 0.00 0.00 0.00 87 1013.9
20260508231549 67 53 3.0 6.0 0.00 0.00 0.00 87 1013.9
20260508230054 67 42 1.0 5.0 0.00 0.00 0.00 87 1013.8
20260508224543 67 57 1.0 6.0 0.00 0.00 0.00 87 1013.8
20260508223056 67 43 0.0 6.0 0.00 0.00 0.00 87 1013.7
20260508221528 68 57 2.0 6.0 0.00 0.00 0.00 87 1013.7
20260508220131 68 58 2.0 7.0 0.00 0.00 0.00 87 1013.7
20260508214509 68 53 2.0 6.0 0.00 0.00 0.00 87 1013.9
20260508213043 68 69 4.0 8.0 0.00 0.00 0.00 87 1014.0
20260508211542 69 55 3.0 6.0 0.00 0.00 0.00 86 1014.0
20260508210058 69 63 0.0 0.0 0.00 0.00 0.00 86 1014.0
20260508204609 70 62 1.0 3.0 0.00 0.00 0.00 85 1014.1
20260508203005 70 62 2.0 4.0 0.00 0.00 0.00 86 1014.3